星链-1510 (STARLINK-1510 )

导读

STARLINK-1510是美国太空探索技术公司SpaceX星链卫星互联网项目的卫星,于2020年6月13日发射升空,属于星链项目早期部署的低轨通信卫星。它运行在近地轨道,承担全球互联网覆盖服务任务,是星链星座构建全球卫星互联网通信网络的重要组成单元。

基本信息
目录编号:
45784
目录名称:
STARLINK-1510
国际标识:
2020-038BG
轨道中心:
EARTH
卫星名称:
星链-1510
卫星全名:
星链-1510 (STARLINK-1510 )
卫星状态:
已陨落 最后检测时间 2026-01-06
发射日期:
2020-06-13 UTC
国别 :
美国 (US)
星等 :
--
轨道信息
数据来源 国际轨道数据
星历时间: 2026-01-06T12:45:07+0800
轨道信息已过期157天
半长轴: 6522.543km
偏心率: 0.0002578
轨道倾角: 53.010°
近地点辐角 176.159°
升交点赤经 358.865°
平近点角 183.948°
近地点: 142.724km
远地点: 146.088km
周期: 87.375分钟
每日圈数: 16.480764
详细信息
固有亮度:
5
最大亮度:
2.5
卫星平台:
Starlink V1.0
覆盖范围:
全球
运营商:
太空探索技术公司
运营商所在国:
美国
制造商(研发单位):
太空探索技术公司
制造商所在国:
美国
使用方式:
暂无
卫星简介
星链(Starlink)计划是由太空探索技术公司(SpaceX)提出的一个巨型低轨卫星互联网星座项目,计划在2019年至2024年间在太空搭建由约1.2万颗卫星组成的“星链”网络,其中1584颗将部署在地球上空550千米处的近地轨道,并从2020年开始工作。该卫星仍在工作。